Regional Weather Roundup
Issued by NWS

Home | Current Version | Previous Version | Text Only | Print | Product List | Glossary Off
Versions: 1 2 3 4 5 6 7 8 9 10 11 12 13 14 15 16 17 18 19 20 21 22 23 24 25 26 27 28 29 30 31 32 33 34 35 36 37 38 39 40 41 42 43 44 45 46 47 48 49 50

000
ASUS43 KOAX 290810
RWRNE

WEATHER ROUNDUP FOR NEBRASKA
NATIONAL WEATHER SERVICE OMAHA NE
200 AM CST SAT NOV 29 2014

NOTES: SATELLITE DATA IS BEING USED TO AUGMENT CLOUD COVER ABOVE
       12000 FEET.
       "FAIR" INDICATES FEW OR NO CLOUDS BELOW 12,000 FEET WITH NO
       SIGNIFICANT WEATHER AND/OR OBSTRUCTIONS TO VISIBILITY.

  * THESE STATIONS DO NOT REPORT WEATHER SUCH AS RAIN...SNOW OR FOG.

NEZ001>004-019>022-054>056-290900-
NEBRASKA PANHANDLE

CITY           SKY/WX    TMP DP  RH WIND       PRES   REMARKS
SCOTTSBLUFF    CLOUDY    44  20  38 W8        29.63F
ALLIANCE       MOCLDY    35  18  49 CALM      29.63F
CHADRON        CLEAR    N/A N/A N/A SW7       29.56F
KIMBALL        CLOUDY    39  19  44 SW12      29.68F WCI  32
SIDNEY         CLOUDY    41  20  43 W12       29.68F
$$

NEZ057>060-069>072-079>082-290900-
SOUTHWEST NEBRASKA

CITY           SKY/WX    TMP DP  RH WIND       PRES   REMARKS
NORTH PLATTE   PTCLDY    25  20  81 N3        29.64F
IMPERIAL       CLOUDY    40  20  44 NW10      29.66F WCI  33
LEXINGTON      MOCLDY    30  19  61 W6        29.62F WCI  24
MCCOOK         CLOUDY    34  15  46 N7        29.62F WCI  28
OGALLALA       MOCLDY    28  24  86 W5        29.65F WCI  23
$$

NEZ005>010-023>029-035>040-094-290900-
NORTH CENTRAL NEBRASKA

CITY           SKY/WX    TMP DP  RH WIND       PRES   REMARKS
VALENTINE      CLEAR     42  22  44 SW8       29.52F
AINSWORTH      CLEAR     43  21  41 SW12      29.52F
BROKEN BOW     PTCLDY    48  23  37 W9        29.60F
O`NEILL        CLEAR     46  24  42 SW8       29.51F
ORD            PTCLDY    45  20  36 SW7       29.56S
THEDFORD       PTCLDY    57  19  23 W15       29.59S
$$

NEZ041-046>049-061>064-073>077-083>087-290900-
SOUTH CENTRAL NEBRASKA

CITY           SKY/WX    TMP DP  RH WIND       PRES   REMARKS
GRAND ISLAND   MOCLDY    40  20  44 W7        29.59F
AURORA         MOCLDY    41  23  47 W9        29.59F
HASTINGS       MOCLDY    42  20  41 SW6       29.60F
HEBRON         CLOUDY    45  30  56 SW3       29.61F
HOLDREGE       MOCLDY    42  14  32 CALM      29.61S
KEARNEY *      MOCLDY    43  16  33 W6        29.62F
YORK           MOCLDY    39  10  30 SW9       29.60S WCI  33
$$

NEZ011>018-030>034-042>045-290900-
NORTHEAST NEBRASKA

CITY           SKY/WX    TMP DP  RH WIND       PRES   REMARKS
NORFOLK        PTCLDY    29  26  89 CALM      29.51F
ALBION         PTCLDY    45  20  37 CALM      29.54S
BLAIR          PTCLDY    44  33  65 S12       29.55F
COLUMBUS *     MOCLDY    27  21  80 W5        29.57S WCI  21
FREMONT        PTCLDY    45  31  59 SW7       29.56F
TEKAMAH        CLEAR     29  23  78 S9        29.55S WCI  20
WAYNE          CLEAR     28  25  87 S5        29.51S WCI  23
$$

NEZ050>053-065>068-078-088>093-290900-
SOUTHEAST NEBRASKA

CITY           SKY/WX    TMP DP  RH WIND       PRES   REMARKS
LINCOLN        MOCLDY    41  31  67 S5        29.61S
OMAHA EPPLEY   PTCLDY    35  31  85 SE9       29.59S WCI  28
BEATRICE       MOCLDY    43  34  69 S5        29.63S
FALLS CITY     CLOUDY    48  37  65 SW5       29.63F
NEBRASKA CITY  CLOUDY    46  32  56 SW15      29.59F
PLATTSMOUTH    CLOUDY    46  32  58 SW3       29.59S
$$

NEZ044-045-051>053-067-290900-
OMAHA AREA

CITY           SKY/WX    TMP DP  RH WIND       PRES   REMARKS
OMAHA EPPLEY   PTCLDY    35  31  85 SE9       29.59S WCI  28
BLAIR          PTCLDY    44  33  65 S12       29.55F
FREMONT        PTCLDY    45  31  59 SW7       29.56F
MILLARD        MOCLDY    33  29  88 CALM      29.58F
OFFUTT AFB     MOCLDY    29  27  92 E2        29.57F
PLATTSMOUTH    CLOUDY    46  32  58 SW3       29.59S
WAHOO          FAIR      44  31  60 SW10      29.56F
$$


USA.gov is the U.S. government's official web portal to all federal, state and local government web resources and services.